Погода в Топсе

Россия / Архангельская область     62°35′52″N   43°37′45″E
темп.,
°C
ветер,
м/с
пор.,
м/с
влажн.,
%
обл.,
%
осадки,
мм/ч
давл.,
гПа
погр.,
м
25 июля, вс
вс2500:00+8з2376100 0.0 101261
03:00+10юз2568100 0.0 1012144
06:00+12зюз276777 0.0 1012340
09:00+17з36445 0.0 10121448
12:00+20з353592 0.0 10132298
15:00+20з3737100 0.0 10132523
18:00+17з495425 0.0 10141160
21:00+14з2471100 0.1 1014114
26 июля, пн
пн2600:00+13юз2577100 0.1 1015131
03:00+13зсз2584100 0.1 1015150
06:00+14зсз137941 0.0 1015245
09:00+18з4759100 0.0 10141188
12:00+13з4994100 1.7 1015630
15:00+16сз59817 2.8 10151121
18:00+17сз410485 0.2 10151529
21:00+13сз49550 0.2 1016559
27 июля, вт
вт2700:00+8ссз38725 0.0 1018209
03:00+5зсз27885 0.0 1019169
06:00+9зсз31172100 0.0 1019414
09:00+15сз57545 0.0 10191034
12:00+19сз583923 0.0 10182115
15:00+21сз693216 0.0 10162655
18:00+20сз49385 0.0 10161984
21:00+13сз25585 0.0 101682
28 июля, ср
ср2800:00+9сз227615 0.0 101634
03:00+6ссз11895 0.0 101611
06:00+11з11706 0.0 1015157
09:00+16з2449100 0.0 1013762
12:00+11юз3796100 3.8 1011288
15:00+16ю367786 5.1 1008402
18:00+17св11865 1.9 100675
21:00+13юв24986 3.1 100576
29 июля, чт
чт2900:00+11всв119815 0.2 100515
03:00+10вюв119899 0.2 100410
06:00+12в129678 0.0 1004113
09:00+17вюв228182 0.0 1004518
12:00+22ююв2350100 0.0 1002936
15:00+20всв357097 0.5 1000320
18:00+17юв4791100 2.6 999230
21:00+15ю3898100 10.3 999233